Regional Weather Roundup
Issued by NWS

Home | Current Version | Previous Version | Text Only | Print | Product List | Glossary On
Versions: 1 2 3 4 5 6 7 8 9 10 11 12 13 14 15 16 17 18 19 20 21 22 23 24 25 26 27 28 29 30 31 32 33 34 35 36 37 38 39 40 41 42 43 44 45 46 47 48 49 50
000
ASUS46 KSTO 241515
RWRCA

NORTHERN AND CENTRAL CA REGIONAL WEATHER ROUNDUP
NATIONAL WEATHER SERVICE SACRAMENTO CA
800 AM PDT MON JUL 24 2017

NOTE: FAIR INDICATES FEW OR NO CLOUDS BELOW 12,000 FEET WITH NO
SIGNIFICANT WEATHER AND/OR OBSTRUCTIONS TO VISIBILITY.

CAZ001-003-241600-
NORTHWEST AREA

CITY           SKY/WX    TMP DP  RH WIND       PRES   REMARKS
CRESCENT CITY  CLOUDY    55  53  93 S9        29.86R
UKIAH          SUNNY     60  52  74 S3        29.85R
$$

CAZ006-505>513-241600-
BAY AREA

CITY           SKY/WX    TMP DP  RH WIND       PRES   REMARKS
SANTA ROSA     CLOUDY    56  54  93 CALM      29.86R
SAN RAFAEL     N/A       57  MM  MM MISG
NAPA           CLOUDY    60  54  80 W8        29.86R
CONCORD        MOSUNNY   61  55  81 W13       29.84S
OAKLAND CITY   N/A      MM  MM  MM MISG
OAKLAND        CLOUDY    62  56  80 N6        29.86R
SAN FRAN CITY  N/A       57  MM  92 MISG
SAN FRAN ARPT  MOSUNNY   60  52  74 CALM      29.86R
LIVERMORE      SUNNY     62  53  72 NW6       29.84R
HAYWARD        CLOUDY    62  52  69 N5        29.86R
REDWOOD CITY   N/A       62  MM  82 MISG
MOFFETT ARPT   CLOUDY    61  57  87 CALM      29.87R
SAN JOSE ARPT  MOSUNNY   61  54  77 SE7       29.86R
$$
CAZ034-037-514>518-241600-
CENTRAL COAST

CITY           SKY/WX    TMP DP  RH WIND       PRES   REMARKS
WATSONVILLE    CLOUDY    55  55 100 CALM      29.91R
SALINAS        CLOUDY    57  54  89 SW5       29.90R
MONTEREY       CLOUDY    56  55  97 E3        29.90R FOG
SAN LUIS OBISP CLOUDY    56  54  93 S5        29.93R FOG
SANTA MARIA    CLOUDY    56  56 100 VRB5      29.93R FOG
$$
CAZ015-016-241600-
NORTHERN SACRAMENTO VALLEY

CITY           SKY/WX    TMP DP  RH WIND       PRES   REMARKS
REDDING        MOSUNNY   74  53  48 CALM      29.80R
RED BLUFF      MOSUNNY   76  55  48 SE7       29.81R
OROVILLE       MOSUNNY   76  53  44 CALM      29.80S
$$
CAZ016>018-241600-
SOUTHERN SACRAMENTO VALLEY

CITY           SKY/WX    TMP DP  RH WIND       PRES   REMARKS
AUBURN         SUNNY     75  50  41 E7        29.86R
BEALE AFB      SUNNY     76  49  38 SE13      29.78R
LINCOLN        FAIR      73  45  35 SE9       29.79R
MARYSVILLE     SUNNY     72  32  23 S13       29.79R
SAC INTL ARPT  SUNNY     65  54  67 S15       29.78R
MATHER AIRPORT SUNNY     70  52  52 SW9       29.81R
DOWNTOWN SAC   N/A       71  MM  MM MISG
SAC EXEC ARPT  SUNNY     67  54  63 S10       29.80S
VACAVILLE      SUNNY     75  49  39 SW7       29.80R
TRAVIS AFB     SUNNY     60  54  80 SW22      29.79R
$$
CAZ019>021-241600-
SAN JOAQUIN VALLEY

CITY           SKY/WX    TMP DP  RH WIND       PRES   REMARKS
STOCKTON       SUNNY     67  57  70 NW9       29.82R
MODESTO        SUNNY     71  56  58 NW9       29.80R
MERCED         SUNNY     74  52  46 N7        29.79R
LEMOORE        MOSUNNY   78  50  37 W5        29.81S
FRESNO         PTSUNNY   79  55  43 SE5       29.81R
HANFORD        SUNNY     78  50  37 W6        29.82R
PORTERVILLE      N/A     79  47  32 SW8       29.84R
BAKERSFIELD    SUNNY     85  39  19 N10       29.82R
$$
CAZ011-012-071-241600-
NORTHERN MOUNTAINS

CITY           SKY/WX    TMP DP  RH WIND       PRES   REMARKS
YREKA          MOSUNNY   67  54  63 CALM      29.95R
MOUNT SHASTA   PTSUNNY   63  51  65 CALM      29.97R
ALTURAS        SUNNY     68  45  43 CALM      30.04R
$$
CAZ011-012-071-241600-
SIERRA NEVADA MTNS

CITY           SKY/WX    TMP DP  RH WIND       PRES   REMARKS
TRUCKEE        PTSUNNY   57  46  67 CALM      30.16R
TAHOE VLY ARPT PTSUNNY   66  47  50 CALM      30.15S
MAMMOTH LAKES  FAIR      66  48  51 CALM      30.24S
$$



USA.gov is the U.S. government's official web portal to all federal, state and local government web resources and services.